This demonstration page uses our WeatherBlox Daily Observations layout. Learn more.

Left ArrowRight Arrow

Hourly Observations for August 14, 2018

Temp ( °F °C ) Dew Point ( °F °C ) Humidity (%) Winds ( mph kmh ) Pressure ( in mb ) Visibility ( mi km ) Precip ( " mm )
12:15 am 00:15 Clear 66 19 66 19 100 100 W 3 6 29.97 1015 10 16.0934 0 0
12:35 am 00:35 Clear 66 19 66 19 100 100 W 3 6 29.97 1015 10 16.0934 0 0
12:55 am 00:55 Clear 68 20 66 19 94 94 WNW 3 6 29.97 1015 10 16.0934 0 0
1:15 am 01:15 Clear 68 20 64 18 88 88 WNW 5 7 29.97 1015 10 16.0934 0 0
1:35 am 01:35 Clear 68 20 64 18 88 88 W 6 9 29.97 1015 10 16.0934 0 0
1:55 am 01:55 Partly Cloudy 68 20 64 18 88 88 W 5 7 29.97 1015 10 16.0934 0 0
2:15 am 02:15 Partly Cloudy 68 20 64 18 88 88 NW 6 9 29.97 1015 10 16.0934 0 0
2:35 am 02:35 Clear 68 20 64 18 88 88 NW 6 9 29.94 1014 10 16.0934 0 0
2:55 am 02:55 Clear 68 20 64 18 88 88 WNW 7 11 29.94 1014 10 16.0934 0 0
3:15 am 03:15 Clear 66 19 64 18 94 94 WNW 8 13 29.94 1014 10 16.0934 0 0
3:35 am 03:35 Clear 68 20 63 17 83 83 WNW 8 13 29.94 1014 10 16.0934 0 0
3:55 am 03:55 Clear 66 19 63 17 88 88 WNW 8 13 29.94 1014 10 16.0934 0 0
4:15 am 04:15 Clear 66 19 63 17 88 88 NW 7 11 29.94 1014 10 16.0934 0 0
4:35 am 04:35 Clear 66 19 63 17 88 88 WNW 6 9 29.94 1014 10 16.0934 0 0
4:55 am 04:55 Clear 64 18 63 17 94 94 WNW 7 11 29.94 1014 10 16.0934 0 0
5:15 am 05:15 Clear 64 18 63 17 94 94 WNW 10 17 29.94 1014 10 16.0934 0 0
5:35 am 05:35 Clear 66 19 63 17 88 88 WNW 7 11 29.94 1014 10 16.0934 0 0
5:55 am 05:55 Clear 64 18 63 17 94 94 WNW 5 7 29.94 1014 10 16.0934 0 0
6:15 am 06:15 Clear 64 18 61 16 88 88 Calm 29.94 1014 10 16.0934 0 0
6:35 am 06:35 Sunny 66 19 61 16 83 83 Calm 29.94 1014 10 16.0934 0 0
6:55 am 06:55 Sunny 66 19 61 16 83 83 Calm 29.97 1015 10 16.0934 0 0
7:15 am 07:15 Mostly Cloudy 68 20 61 16 78 78 WNW 3 6 29.97 1015 10 16.0934 0 0
7:35 am 07:35 Cloudy 68 20 63 17 83 83 WNW 5 7 29.97 1015 10 16.0934 0 0
7:55 am 07:55 Partly Cloudy 70 21 63 17 78 78 WNW 7 11 29.97 1015 10 16.0934 0 0
8:15 am 08:15 Partly Cloudy 72 22 63 17 73 73 WNW 8 13 29.97 1015 10 16.0934 0 0
8:35 am 08:35 Partly Cloudy 70 21 63 17 78 78 W 8 13 29.97 1015 10 16.0934 0 0
8:55 am 08:55 Partly Cloudy 72 22 63 17 73 73 W 7 11 29.97 1015 10 16.0934 0 0
9:15 am 09:15 Mostly Cloudy 73 23 64 18 74 74 WNW 12 19 30 1016 10 16.0934 0 0
9:35 am 09:35 Cloudy 72 22 64 18 78 78 WNW 10 17 30 1016 10 16.0934 0 0
9:55 am 09:55 Cloudy 73 23 64 18 74 74 W 9 15 30 1016 10 16.0934 0 0
10:15 am 10:15 Cloudy 75 24 64 18 69 69 W 12 19 30 1016 10 16.0934 0 0
10:35 am 10:35 Mostly Cloudy 75 24 64 18 69 69 WNW 12 19 29.97 1015 10 16.0934 0 0
10:55 am 10:55 Partly Cloudy 75 24 63 17 65 65 WNW 9 15 30 1016 10 16.0934 0 0
11:15 am 11:15 Partly Cloudy 79 26 64 18 61 61 WNW 12 19 30 1016 10 16.0934 0 0
11:35 am 11:35 Sunny 79 26 64 18 61 61 WNW 9 15 30 1016 10 16.0934 0 0
11:55 am 11:55 Sunny 79 26 66 19 65 65 W 8 13 29.97 1015 10 16.0934 0 0
12:15 pm 12:15 Mostly Cloudy 79 26 68 20 70 70 WNW 7 11 29.97 1015 10 16.0934 0 0
12:35 pm 12:35 Mostly Cloudy 81 27 68 20 66 66 WNW 10 17 29.97 1015 10 16.0934 0 0
12:55 pm 12:55 Partly Cloudy 81 27 68 20 66 66 W 10 17 29.97 1015 10 16.0934 0 0
1:15 pm 13:15 Partly Cloudy 82 28 68 20 62 62 WNW 10 17 29.97 1015 10 16.0934 0 0
1:35 pm 13:35 Partly Cloudy 82 28 68 20 62 62 WNW 8 13 29.97 1015 10 16.0934 0 0
1:55 pm 13:55 Partly Cloudy 82 28 68 20 62 62 W 10 17 29.97 1015 10 16.0934 0 0
2:15 pm 14:15 Partly Cloudy 82 28 68 20 62 62 WNW 10 17 29.97 1015 10 16.0934 0 0
2:35 pm 14:35 Mostly Cloudy 82 28 68 20 62 62 NW 12 19 29.94 1014 10 16.0934 0 0
2:55 pm 14:55 Mostly Cloudy 82 28 68 20 62 62 WNW 9 15 29.94 1014 10 16.0934 0 0
3:15 pm 15:15 Partly Cloudy 84 29 68 20 58 58 W 9 15 29.94 1014 10 16.0934 0 0
3:35 pm 15:35 Partly Cloudy 84 29 68 20 58 58 W 7 11 29.94 1014 10 16.0934 0 0
3:55 pm 15:55 Partly Cloudy 86 30 68 20 55 55 W 10 17 29.91 1013 10 16.0934 0 0
4:15 pm 16:15 Cloudy 81 27 68 20 66 66 WNW 14 22 29.91 1013 10 16.0934 0 0
4:35 pm 16:35 Mostly Cloudy with Light Rain 75 24 72 22 89 89 WNW 7 11 29.94 1014 7 11.26538 0 0
4:55 pm 16:55 Mostly Cloudy with Light Rain 77 25 70 21 79 79 N 13 20 29.94 1014 10 16.0934 0 0
5:15 pm 17:15 Cloudy with Light Rain 77 25 72 22 83 83 NNW 7 11 29.94 1014 10 16.0934 0 0
5:35 pm 17:35 Partly Cloudy 79 26 70 21 74 74 NW 10 17 29.94 1014 10 16.0934 0 0
5:55 pm 17:55 Partly Cloudy 79 26 70 21 74 74 NNW 6 9 29.94 1014 10 16.0934 0 0
6:15 pm 18:15 Partly Cloudy 79 26 70 21 74 74 NW 9 15 29.94 1014 10 16.0934 0 0
6:35 pm 18:35 Mostly Cloudy 79 26 70 21 74 74 NW 14 22 29.94 1014 10 16.0934 0 0
6:55 pm 18:55 Cloudy 79 26 68 20 70 70 NNW 7 11 29.94 1014 10 16.0934 0 0
7:15 pm 19:15 Mostly Cloudy with Light Rain 77 25 70 21 79 79 NNW 6 9 29.97 1015 10 16.0934 0 0
7:35 pm 19:35 Partly Cloudy with Light Rain 77 25 70 21 79 79 NW 6 9 29.97 1015 10 16.0934 0 0
7:55 pm 19:55 Partly Cloudy 75 24 70 21 83 83 Calm 29.97 1015 10 16.0934 0 0
8:15 pm 20:15 Clear 73 23 70 21 89 89 Calm 29.97 1015 10 16.0934 0 0
8:35 pm 20:35 Clear 73 23 70 21 89 89 W 3 6 29.97 1015 10 16.0934 0 0
8:55 pm 20:55 Clear 73 23 68 20 83 83 W 3 6 29.97 1015 10 16.0934 0 0
9:15 pm 21:15 Clear 73 23 68 20 83 83 Calm 29.97 1015 10 16.0934 0 0
9:35 pm 21:35 Clear 73 23 68 20 83 83 Calm 30 1016 10 16.0934 0 0
9:55 pm 21:55 Clear 72 22 68 20 88 88 W 3 6 30 1016 10 16.0934 0 0
10:15 pm 22:15 Clear 70 21 68 20 94 94 W 7 11 30 1016 10 16.0934 0 0
10:35 pm 22:35 Partly Cloudy 70 21 68 20 94 94 W 3 6 30 1016 10 16.0934 0 0
10:55 pm 22:55 Cloudy 70 21 68 20 94 94 Calm 30 1016 10 16.0934 0 0
11:15 pm 23:15 Cloudy 72 22 68 20 88 88 Calm 30 1016 10 16.0934 0 0
11:35 pm 23:35 Cloudy with Light Rain 72 22 70 21 94 94 SW 5 7 30 1016 10 16.0934 0 0
11:55 pm 23:55 Cloudy with Light Rain 72 22 70 21 94 94 Calm 30 1016 10 16.0934 0 0

Powered by AerisWeather